GFSFLT1_sfc_rhum_105.txt.gz
RH
68 86 96 97 97 96 97 98 97 98 98 99 99 99 99 98 98 98 96 95 93 88 80 79 68 73 81 72 72 85 80 80
79 94 97 98 98 98 98 99 98 99 99 99 99 99 99 100 99 96 96 93 86 81 72 70 64 67 74 74 76 77 85 80
87 97 98 97 97 97 99 98 98 98 97 98 97 98 99 99 99 96 98 91 79 74 68 63 65 72 86 74 71 85 85 78
84 94 97 97 98 98 97 96 98 97 91 96 99 99 99 100 99 98 96 91 77 74 64 61 66 75 79 71 69 77 71 87
76 87 98 98 98 97 97 94 98 95 94 96 93 95 98 98 99 99 98 92 87 82 66 67 70 75 73 70 65 72 71 72
75 84 90 95 98 98 98 98 98 98 94 95 96 98 94 98 98 99 98 96 93 93 86 83 84 80 82 72 68 72 66 70
70 82 92 98 97 98 98 95 93 99 95 93 95 97 98 98 98 98 98 96 96 94 89 89 89 89 87 86 78 72 70 73
76 94 97 97 98 97 97 92 90 97 84 93 94 95 95 95 96 96 98 98 97 95 91 92 89 88 90 94 92 89 86 83
72 89 90 95 96 96 94 92 89 96 93 91 91 90 92 92 90 90 91 94 95 94 92 93 95 93 92 96 97 98 94 93
81 88 90 93 94 96 92 92 96 94 94 91 91 90 90 91 89 90 88 90 95 96 95 95 96 95 94 94 94 94 98 96
78 91 92 91 89 92 94 94 95 95 93 90 92 91 87 88 90 89 90 94 95 95 96 95 96 96 96 96 98 97 96 96
74 81 88 93 94 94 95 96 95 95 94 89 90 86 87 93 87 87 88 92 92 93 91 93 93 94 96 95 95 94 94 90
80 78 90 95 90 89 95 94 93 93 93 91 89 84 86 90 88 84 87 92 91 90 91 91 86 82 81 82 83 84 89 90
81 87 93 93 94 87 84 92 91 90 91 93 91 90 87 87 90 88 81 84 88 89 90 89 83 81 85 84 85 87 92 90
65 83 81 88 91 90 86 85 88 87 90 92 93 92 90 86 86 88 86 83 83 85 84 80 78 76 77 83 88 93 93 93
63 68 78 78 82 89 87 86 86 89 89 89 92 92 91 86 90 90 86 90 84 83 86 85 85 85 83 88 87 91 92 99
64 65 71 80 80 81 81 87 88 86 88 89 86 88 92 90 90 91 91 90 92 89 87 87 90 88 91 92 92 93 96 99
70 71 77 78 80 80 81 82 84 88 88 87 85 85 88 89 87 87 90 93 92 94 93 92 93 96 100 100 99 97 98 99
76 77 81 79 79 79 80 80 87 88 87 88 86 86 86 85 89 90 91 93 94 96 99 98 99 99 100 99 97 97 98 98

GFSFLT1_sfc_rhum_108.txt.gz
RH
35 65 90 96 96 96 96 97 98 99 99 99 99 99 99 98 98 98 97 95 95 95 92 90 88 88 84 76 77 88 85 87
88 96 99 99 98 98 98 98 99 98 98 99 99 98 99 99 98 95 97 96 93 95 93 87 88 84 79 74 77 83 94 88
91 98 99 97 94 97 98 98 98 96 87 96 96 98 98 98 99 98 95 98 90 96 90 83 80 81 77 75 73 90 91 84
80 98 98 98 97 96 97 97 92 95 97 96 99 98 99 100 100 99 98 96 92 86 88 81 71 73 77 72 72 77 80 90
64 93 98 95 92 95 97 94 89 98 97 98 98 98 97 98 98 99 98 93 88 76 74 69 70 73 73 68 70 81 72 81
53 86 90 88 92 98 93 89 94 97 97 92 93 92 94 98 99 99 98 96 90 78 72 71 78 73 76 66 76 77 69 78
59 84 94 92 94 92 92 91 95 98 97 95 92 90 97 99 99 99 98 96 94 84 79 78 86 86 83 78 74 75 71 70
83 93 98 94 96 94 90 93 93 92 98 94 96 96 97 98 96 98 98 98 96 91 86 89 92 92 88 85 84 85 82 80
82 89 95 88 89 90 91 91 90 93 90 93 94 94 95 95 91 93 95 95 95 93 89 85 92 91 93 91 91 95 92 92
79 91 95 86 87 88 87 85 82 88 88 91 94 93 94 95 93 90 94 95 97 95 93 90 85 87 93 93 95 98 96 96
82 88 97 87 92 87 85 84 81 83 85 81 89 91 93 93 94 92 94 96 96 96 96 93 92 90 91 93 94 93 97 99
88 87 93 92 92 88 86 89 87 89 89 96 97 96 91 93 93 94 94 96 97 95 94 94 94 92 90 92 92 93 92 94
74 92 95 96 97 92 90 92 92 90 90 93 97 97 96 96 93 92 94 94 94 96 97 94 94 95 94 93 95 94 93 94
66 79 90 96 97 94 88 90 89 91 92 96 97 97 96 96 92 91 93 94 93 92 93 96 95 93 95 95 92 96 96 94
68 75 80 84 92 95 92 94 91 89 93 94 95 97 95 92 92 91 92 92 93 92 90 92 94 94 91 93 90 90 90 89
74 76 82 81 84 88 92 93 93 89 94 96 95 92 91 89 90 90 88 89 90 90 91 90 89 89 88 89 88 92 95 99
84 80 77 79 80 82 82 85 94 92 90 93 94 95 93 90 91 92 90 90 88 90 92 90 92 90 95 94 92 94 95 98
76 81 88 78 82 80 86 85 84 94 92 90 90 93 95 94 93 92 92 92 92 92 93 95 95 94 100 95 96 94 96 98
80 81 84 82 81 84 87 83 86 89 91 89 90 89 92 94 94 94 94 94 96 96 96 96 98 99 100 100 99 98 99 99

GFSFLT1_sfc_rhum_114.txt.gz
RH
12 12 14 20 26 31 44 54 62 78 81 87 83 77 83 88 90 94 90 91 87 90 91 88 86 85 72 72 73 58 51 50
12 12 18 32 37 40 48 56 62 84 87 93 89 84 90 81 77 90 94 93 93 92 94 94 90 85 73 73 69 62 63 54
11 13 24 42 41 47 48 51 59 80 80 72 71 84 84 82 84 89 89 93 94 95 95 96 93 83 82 77 69 63 62 56
15 17 21 34 46 52 49 50 57 72 67 71 64 66 78 79 83 89 90 92 93 94 96 95 94 91 86 78 70 63 64 62
22 20 19 29 47 54 56 53 58 64 63 64 64 60 62 67 68 74 89 78 83 92 92 96 96 93 89 78 72 67 60 61
32 27 21 23 46 62 73 68 68 67 62 58 58 56 56 66 64 71 77 84 91 90 94 95 95 94 89 84 78 71 64 54
34 36 31 31 55 72 81 74 74 75 69 61 61 64 71 73 71 78 84 90 95 96 96 97 95 92 92 87 83 73 64 59
39 39 39 41 56 73 83 72 77 84 80 70 65 69 75 72 72 67 84 97 98 98 97 97 97 94 92 87 85 82 70 64
44 47 49 53 66 69 81 74 77 80 75 70 70 71 64 64 60 64 87 94 95 94 96 96 95 94 92 89 86 87 76 70
52 53 57 60 68 73 81 80 73 77 66 66 67 69 66 64 65 77 91 90 94 96 96 96 95 94 94 93 93 94 87 77
62 61 65 66 69 73 79 81 74 73 65 67 64 64 63 65 74 87 93 92 92 94 94 94 94 93 92 91 89 83 79 78
60 71 77 77 79 79 82 85 81 78 71 71 67 69 64 72 78 82 92 93 93 92 92 94 91 86 85 85 78 78 75 74
52 60 76 83 88 85 85 86 86 79 77 72 75 72 68 77 88 88 92 96 93 92 94 91 91 79 77 75 72 69 71 75
44 47 58 82 87 90 89 89 87 80 75 79 79 76 74 72 77 84 90 96 95 93 92 91 91 90 88 83 79 79 76 76
48 53 62 75 85 87 88 92 84 79 80 79 80 72 69 66 67 78 87 91 96 96 93 92 94 90 91 88 90 91 88 86
54 60 70 76 82 85 85 87 90 82 79 78 75 73 69 72 74 73 77 84 87 90 95 95 92 94 92 90 86 86 85 89
56 57 58 71 87 83 85 86 84 87 89 80 73 78 73 75 76 79 78 77 76 75 82 95 98 98 100 100 96 91 88 91
56 56 57 58 74 88 89 89 89 85 86 89 84 78 81 78 72 76 79 83 80 82 85 89 90 93 100 100 100 94 96 98
56 54 53 53 54 73 79 86 86 81 81 84 86 90 86 78 80 76 75 78 84 87 86 85 88 88 100 100 100 98 99 98

GFSFLT1_sfc_rhum_117.txt.gz
RH
11 11 12 10 14 17 22 33 48 60 61 61 57 62 76 74 72 70 75 75 73 78 76 76 82 86 86 87 86 86 71 56
12 13 13 12 18 23 28 33 48 55 60 70 77 74 80 76 72 72 73 79 77 75 81 79 90 92 89 86 86 83 79 54
13 13 14 18 20 30 30 34 43 52 69 76 66 62 67 63 64 71 76 78 77 79 82 88 95 95 92 92 89 84 82 62
11 11 14 16 26 33 34 35 40 56 75 69 58 60 75 72 78 73 74 77 89 90 91 90 92 96 94 91 86 79 84 72
9 11 14 18 24 32 35 36 39 63 76 64 60 61 71 65 63 69 74 72 80 90 92 93 95 94 93 93 84 80 76 68
18 17 16 16 20 36 43 39 41 64 67 58 58 54 55 52 52 60 71 77 79 87 93 96 97 94 94 91 92 84 77 66
22 22 27 21 38 45 54 47 44 59 65 58 60 57 52 49 54 58 74 75 74 86 88 95 95 95 96 93 91 88 77 70
28 28 29 26 38 54 66 63 54 66 69 63 57 56 54 55 56 57 68 76 88 87 92 97 96 93 95 94 92 91 85 74
34 36 38 39 46 54 71 70 74 79 70 66 58 56 53 54 57 52 58 73 76 84 94 96 96 94 94 94 94 92 92 89
39 44 48 50 54 61 71 74 79 82 78 71 61 58 56 56 57 60 61 66 78 82 95 96 96 95 95 95 95 93 93 92
51 52 58 59 61 67 74 76 79 77 74 68 59 59 56 57 67 70 69 81 84 92 96 96 97 97 95 95 95 93 93 92
52 62 68 76 73 71 76 79 81 80 74 69 60 55 58 62 70 69 74 85 87 90 93 93 95 96 96 96 96 95 92 92
46 56 66 75 85 81 79 84 88 83 75 72 66 59 61 66 69 71 78 90 90 92 90 92 94 95 96 95 96 95 93 94
42 46 56 72 82 85 90 88 85 86 78 72 73 69 66 69 70 76 89 93 93 91 92 94 93 93 94 94 95 93 93 90
45 51 56 63 79 84 86 88 90 90 79 73 70 76 71 67 72 72 84 92 93 94 93 91 90 89 90 92 92 91 80 71
46 52 59 60 72 84 85 87 87 87 86 77 78 70 71 71 74 68 74 88 92 90 90 91 91 93 91 87 85 81 78 91
47 47 49 57 67 81 86 88 89 85 85 89 67 67 69 69 67 74 80 78 86 91 92 91 94 92 100 100 97 93 94 96
46 45 48 47 58 75 89 88 87 85 84 84 87 76 79 77 66 67 71 80 74 85 89 94 95 92 100 100 100 93 94 93
46 44 44 44 45 52 66 83 87 88 88 85 86 88 89 83 79 70 70 76 81 84 83 83 94 96 100 100 100 92 96 99

GFSFLT1_sfc_rhum_123.txt.gz
RH
13 13 12 11 16 39 60 64 72 88 92 90 88 96 96 96 96 93 96 93 93 93 96 96 95 97 98 96 95 96 91 93
13 13 14 17 20 33 60 68 73 88 94 97 95 92 89 97 94 89 94 95 94 94 96 96 96 94 94 95 97 96 98 93
18 22 24 25 25 42 54 63 74 76 85 86 88 86 88 92 91 88 86 92 92 95 95 95 95 96 97 96 93 95 96 91
17 20 26 31 32 48 52 58 71 72 76 84 94 95 96 97 91 90 89 90 93 94 95 95 96 94 95 95 94 91 92 92
12 17 23 30 35 50 43 53 66 71 76 80 83 84 95 92 87 86 88 86 94 90 95 94 96 95 94 93 93 92 89 92
10 16 20 22 35 54 46 49 64 72 79 80 84 85 83 86 86 88 88 87 88 93 94 93 95 94 93 93 95 93 90 85
12 22 29 60 59 70 66 57 75 82 85 84 82 83 87 84 88 87 92 93 90 89 95 96 95 95 95 95 94 93 93 87
45 54 60 77 86 86 82 83 95 94 91 88 86 85 90 85 85 90 93 97 95 96 95 94 96 95 94 93 93 93 93 92
68 71 72 75 85 88 88 86 89 91 93 90 90 89 89 82 78 86 89 91 88 94 95 93 93 94 94 93 95 95 93 93
76 76 75 77 85 92 90 88 91 88 87 92 87 90 85 82 76 78 85 89 93 93 94 94 91 92 94 94 97 95 95 94
83 84 86 88 92 91 91 90 94 92 87 88 86 83 79 79 81 82 84 91 95 98 98 97 98 96 96 96 96 95 95 96
84 87 85 86 86 89 95 94 91 94 92 90 91 85 82 81 80 84 89 91 94 96 95 97 98 98 98 98 96 96 97 97
81 80 82 86 88 88 90 93 94 95 93 92 92 91 86 83 84 88 91 92 94 94 94 95 95 97 98 98 98 97 97 94
76 79 82 85 89 90 90 90 92 91 92 95 94 92 90 87 84 89 93 93 94 96 96 97 97 97 97 98 97 97 97 95
73 78 85 88 90 93 90 90 88 88 89 93 96 94 91 88 89 94 93 94 96 97 96 96 96 96 97 97 97 97 98 97
75 74 80 86 90 92 91 90 89 86 85 87 90 89 91 90 89 95 94 96 97 95 96 97 97 97 97 98 97 97 99 99
56 59 69 79 84 90 84 91 90 86 88 86 83 85 85 92 93 96 96 97 98 97 98 98 98 98 100 100 100 99 99 99
53 55 59 68 82 86 92 88 87 88 87 87 87 83 86 85 84 92 96 98 97 98 98 98 98 98 100 100 100 98 98 99
54 56 56 56 62 79 81 81 81 85 88 88 87 89 87 85 85 88 95 98 98 98 98 97 97 98 100 100 100 97 98 98

GFSFLT1_sfc_rhum_129.txt.gz
RH
12 16 19 20 24 50 65 81 88 91 92 95 95 96 95 95 94 95 92 96 95 96 97 98 97 98 99 99 98 97 97 98
8 11 17 21 24 28 56 76 83 91 92 95 98 94 96 97 95 95 96 95 95 96 97 98 97 97 96 96 98 97 99 98
9 11 15 22 24 29 35 62 77 86 88 87 87 90 93 93 93 95 95 95 95 95 96 97 96 97 99 98 97 99 99 95
8 8 10 17 24 28 36 51 66 81 84 86 96 98 99 99 99 97 95 94 94 91 94 94 96 96 97 97 95 93 95 96
9 8 9 12 16 26 27 46 62 76 84 87 91 87 93 89 90 91 95 93 93 90 92 92 94 93 95 96 95 92 89 94
9 9 8 9 14 32 31 40 60 72 84 85 87 85 85 93 88 92 95 96 95 93 94 94 95 94 93 94 96 94 91 87
10 9 8 16 66 63 68 48 66 75 85 86 86 84 92 97 92 94 96 96 97 97 96 96 95 95 96 96 95 94 94 89
19 13 12 64 77 92 88 84 88 87 88 89 86 85 91 94 91 89 95 98 98 98 97 98 97 96 96 94 96 96 95 94
93 93 96 92 96 97 98 98 99 95 90 91 90 94 93 93 94 93 94 94 92 95 96 97 97 96 96 96 96 96 95 96
94 91 92 93 96 97 98 98 99 98 98 98 98 95 94 94 93 93 93 90 92 95 94 96 97 97 97 97 97 97 96 96
95 96 96 96 96 97 97 98 98 96 97 97 96 97 96 95 94 94 95 94 95 95 96 96 97 97 97 98 97 97 98 97
96 96 94 94 93 93 94 94 95 98 96 95 95 97 96 97 94 95 93 94 95 96 95 95 96 97 97 97 95 95 98 96
94 92 91 92 92 91 92 93 93 92 96 97 97 96 94 97 97 96 95 95 95 95 96 96 95 96 96 97 97 96 95 96
91 89 91 92 91 90 90 90 90 87 87 91 94 95 97 96 96 98 97 98 97 98 98 98 98 98 98 98 98 98 98 97
89 86 87 89 88 89 90 89 87 85 85 87 92 94 94 98 97 97 98 97 98 98 97 96 96 97 97 97 98 98 98 97
81 82 82 81 82 86 88 89 88 84 84 85 89 89 90 90 95 98 97 97 97 96 97 97 96 97 98 98 98 98 98 98
89 75 79 79 79 84 85 85 86 84 85 86 84 84 85 90 90 94 99 98 98 97 97 97 99 99 100 100 100 99 98 98
93 83 72 69 74 78 86 84 81 83 84 83 84 84 86 86 86 88 94 97 98 98 99 98 98 98 100 100 100 99 99 99
75 74 73 68 68 73 79 81 81 84 85 84 83 86 86 85 86 88 91 95 98 99 99 99 99 99 100 100 100 99 99 99

GFSFLT1_sfc_rhum_132.txt.gz
RH
12 11 11 13 22 26 50 87 88 88 89 92 94 94 85 86 87 85 88 91 95 96 98 97 98 97 98 99 98 98 98 99
13 12 11 10 12 22 46 87 88 92 90 92 89 91 88 91 86 83 90 91 94 96 98 98 97 96 95 97 98 98 99 98
15 14 14 21 20 26 29 72 86 91 84 84 84 84 85 87 88 87 84 91 91 94 96 97 96 97 96 98 97 99 98 97
18 16 14 13 17 21 25 32 74 89 82 84 94 92 96 97 92 91 88 89 92 94 95 96 95 95 98 96 96 93 97 97
18 17 16 12 12 16 24 25 41 81 82 85 87 90 88 87 86 85 90 90 94 94 95 95 96 94 96 96 96 92 91 96
19 17 15 11 10 17 24 28 38 61 82 82 84 85 82 84 87 90 89 94 94 95 95 94 95 96 95 95 98 95 94 90
18 16 13 10 16 36 39 38 49 66 82 82 84 82 86 93 91 93 91 92 96 95 94 95 95 95 95 96 95 94 96 93
69 67 46 15 44 60 68 45 59 76 81 86 85 80 85 88 86 89 92 95 98 98 96 97 96 94 94 94 95 96 95 95
91 81 88 99 96 94 90 86 86 83 88 88 88 85 91 88 88 84 87 93 92 96 97 96 95 95 96 95 96 96 96 96
90 92 94 95 96 96 97 98 99 95 93 94 94 95 93 93 90 90 86 84 90 94 94 97 97 97 97 97 97 97 97 96
90 89 93 94 93 94 95 96 98 99 98 96 95 94 95 94 95 94 92 92 95 97 97 97 98 97 97 98 98 97 97 97
91 86 91 93 90 92 93 94 96 97 98 99 98 98 98 98 98 98 97 96 96 97 97 97 98 98 98 98 98 98 98 97
90 91 90 91 91 90 92 92 93 92 93 96 97 97 99 99 98 98 98 97 96 97 97 97 97 98 98 98 98 98 98 98
94 96 91 88 88 89 90 90 92 90 90 92 95 96 97 99 99 98 98 97 97 97 96 96 97 97 98 97 96 96 96 96
98 98 85 83 89 87 87 88 88 85 85 89 92 94 94 95 98 99 99 98 98 98 97 96 96 96 96 97 97 98 98 98
97 97 94 76 81 85 84 86 86 84 84 86 89 87 87 88 91 95 98 99 99 98 99 99 98 98 99 98 98 98 98 98
99 96 91 77 76 81 83 84 84 82 84 86 85 84 83 88 89 90 94 97 98 98 98 98 99 99 100 100 99 98 98 98
96 98 98 90 77 76 85 84 81 82 83 82 84 85 85 86 87 87 93 95 96 99 98 98 98 98 100 100 100 98 99 99
74 82 83 86 79 73 76 80 83 83 85 83 83 85 85 85 85 90 91 94 96 97 99 99 98 98 100 100 100 99 99 99